This is the latest recevied weather packets stored in our database for station/object KD8OZS. If no packets are shown the sender has not sent any weather packets the latest 10 day(s).
| Time | Temp. | Humidity | Pressure | Rain* | Wind** | Luminosity | Snow |
|---|---|---|---|---|---|---|---|
| 1778057298 | 6.67° C | 97% | 1000.4 hPa | 1.27 mm | - | 0 W/m² | - |
| 1778056995 | 6.67° C | 97% | 1000.7 hPa | 1.78 mm | - | 0 W/m² | - |
| 1778056691 | 6.67° C | 97% | 1000.6 hPa | 1.78 mm | - | 0 W/m² | - |
| 1778056389 | 6.67° C | 97% | 1000.4 hPa | 0 mm | - | 0 W/m² | - |
| 1778056087 | 6.67° C | 97% | 1000.6 hPa | 0 mm | - | 0 W/m² | - |
| 1778055782 | 6.67° C | 97% | 1000.6 hPa | 0 mm | - | 0 W/m² | - |
| 1778055479 | 6.67° C | 97% | 1000.6 hPa | 1.78 mm | - | 0 W/m² | - |
| 1778055177 | 6.67° C | 97% | 1000.2 hPa | 1.78 mm | - | 0 W/m² | - |
| 1778054875 | 6.67° C | 97% | 1000.3 hPa | 1.27 mm | - | 0 W/m² | - |
| 1778054571 | 6.67° C | 97% | 1000.2 hPa | 3.05 mm | - | 0 W/m² | - |
| 1778054269 | 6.67° C | 97% | 1000.6 hPa | 1.78 mm | - | 0 W/m² | - |
| 1778053966 | 7.22° C | 97% | 1000.3 hPa | 1.27 mm | - | 0 W/m² | - |
| 1778053663 | 6.67° C | 97% | 1000.2 hPa | 3.05 mm | - | 0 W/m² | - |
| 1778053360 | 6.67° C | 97% | 1000 hPa | 1.78 mm | - | 0 W/m² | - |
| 1778053058 | 6.67° C | 97% | 1000.1 hPa | 3.05 mm | - | 0 W/m² | - |
| 1778052755 | 6.67° C | 97% | 1000.2 hPa | 4.32 mm | - | 0 W/m² | - |
| 1778052452 | 6.67° C | 97% | 1000.2 hPa | 4.83 mm | - | 0 W/m² | - |
| 1778052149 | 6.67° C | 97% | 999.8 hPa | 4.83 mm | - | 0 W/m² | - |
| 1778051847 | 6.67° C | 97% | 1000.2 hPa | 4.32 mm | - | 0 W/m² | - |
| 1778051544 | 6.67° C | 97% | 1000.1 hPa | 4.83 mm | - | 0 W/m² | - |
| 1778051241 | 6.67° C | 97% | 1000 hPa | 6.6 mm | - | 0 W/m² | - |
| 1778050938 | 7.22° C | 97% | 1000.1 hPa | 4.32 mm | - | 0 W/m² | - |
| 1778050636 | 7.22° C | 98% | 1000 hPa | 3.05 mm | - | 0 W/m² | - |
| 1778050333 | 7.22° C | 98% | 1000 hPa | 4.83 mm | - | 0 W/m² | - |
| 1778050029 | 7.78° C | 98% | 999.9 hPa | 6.1 mm | - | 0 W/m² | - |
* Rain latest hour (hover to see other rain measurements)
** Current wind speed in m/s (hover to see current wind gust speed)